This demonstration page uses our WeatherBlox Daily Observations layout. Learn more.

Left ArrowRight Arrow

39.01783, -85.05884

Hourly Observations for February 16, 2019

Temp ( °F °C ) Dew Point ( °F °C ) Humidity (%) Winds ( mph kmh ) Pressure ( in mb ) Visibility ( mi km ) Precip ( " mm )
12:52 am 00:52 Cloudy 28 -2.2 18 -7.8 66 66 N 10 17 29.97 1015 10 16 0.00 0.00
1:52 am 01:52 Mostly Cloudy 27 -2.8 18 -7.8 69 69 N 15 24 29.96 1015 10 16 0.00 0.00
2:52 am 02:52 Cloudy 27 -2.8 18 -7.8 69 69 N 15 24 29.97 1015 10 16 0.00 0.00
3:52 am 03:52 Cloudy 26 -3.3 19 -7.2 75 75 N 13 20 29.98 1015 10 16 0.00 0.00
4:52 am 04:52 Cloudy 26 -3.3 18 -7.8 71 71 NNE 16 26 29.99 1016 10 16 0.00 0.00
5:52 am 05:52 Cloudy 25 -3.9 18 -7.8 75 75 NNE 16 26 30.00 1016 10 16 0.00 0.00
6:44 am 06:44 Cloudy 26 -3.3 18 -7.8 71 71 NNE 14 22 30.05 1018 9 14 0.00 0.00
6:52 am 06:52 Cloudy 26 -3.3 18 -7.8 71 71 NNE 17 28 30.01 1016 9 14 0.00 0.00
7:52 am 07:52 Cloudy 25 -3.9 17 -8.3 72 72 NNE 16 26 30.04 1017 7 11 0.00 0.00
8:52 am 08:52 Mostly Cloudy 24 -4.4 16 -8.9 71 71 NNE 17 28 30.04 1017 8 13 0.00 0.00
9:52 am 09:52 Partly Cloudy 27 -2.8 17 -8.3 66 66 NNE 10 17 30.05 1018 9 14 0.00 0.00
10:52 am 10:52 Mostly Sunny 28 -2.2 17 -8.3 63 63 NNE 13 20 30.06 1018 10 16 0.00 0.00
11:52 am 11:52 Mostly Sunny 31 -0.6 18 -7.8 59 59 NE 13 20 30.06 1018 10 16 0.00 0.00
12:52 pm 12:52 Mostly Sunny 33 0.6 18 -7.8 54 54 NE 10 17 30.04 1017 10 16 0.00 0.00
1:52 pm 13:52 Partly Cloudy 35 1.7 19 -7.2 52 52 NE 10 17 30.01 1016 10 16 0.00 0.00
2:52 pm 14:52 Partly Cloudy 35 1.7 20 -6.7 54 54 E 9 15 30.00 1016 10 16 0.00 0.00
3:52 pm 15:52 Mostly Cloudy 35 1.7 19 -7.2 52 52 NE 12 19 29.99 1016 10 16 0.00 0.00
4:52 pm 16:52 Partly Cloudy 34 1.1 19 -7.2 54 54 NE 14 22 29.98 1015 10 16 0.00 0.00
5:52 pm 17:52 Partly Cloudy 32 0 20 -6.7 61 61 E 13 20 30.00 1016 10 16 0.00 0.00
6:52 pm 18:52 Partly Cloudy 30 -1.1 20 -6.7 66 66 ENE 9 15 30.02 1017 10 16 0.00 0.00
7:52 pm 19:52 Partly Cloudy 29 -1.7 20 -6.7 69 69 ENE 12 19 30.02 1017 10 16 0.00 0.00
8:52 pm 20:52 Partly Cloudy 28 -2.2 20 -6.7 72 72 NE 12 19 30.02 1017 10 16 0.00 0.00
9:52 pm 21:52 Mostly Cloudy 27 -2.8 19 -7.2 72 72 NE 16 26 30.00 1016 10 16 0.00 0.00
10:52 pm 22:52 Partly Cloudy 27 -2.8 19 -7.2 72 72 NE 14 22 29.98 1015 10 16 0.00 0.00
11:52 pm 23:52 Clear 27 -2.8 19 -7.2 72 72 ENE 14 22 29.97 1015 10 16 0.00 0.00

Powered by AerisWeather